Weather History for KGPH - December, 2012

Change the Weather History Date:

Tuesday, December 18, 2012

  Actual Average (KMCI) Record (KMCI)
Temperature  
Mean Temperature 42 °F 30 °F  
Max Temperature 53 °F 39 °F 64 °F (1976)
Min Temperature 32 °F 22 °F -15 °F (1983)
Degree Days  
Heating Degree Days 22 35  
Month to date heating degree days 578  
Since 1 July heating degree days 1580  
Cooling Degree Days 0 0  
Month to date cooling degree days 0  
Year to date cooling degree days 1360  
Moisture  
Dew Point 33 °F    
Average Humidity 72    
Maximum Humidity 100    
Minimum Humidity 44    
Precipitation  
Precipitation 0.00 in 0.05 in 1.69 in (1895)
Month to date precipitation 0.99  
Year to date precipitation 38.32  
Snow  
Snow 0.00 in 0.10 in 3.50 in (1989)
Month to date snowfall 2.6  
Since 1 July snowfall 4.0  
Snow Depth -    
Sea Level Pressure  
Sea Level Pressure 29.72 in    
Wind  
Wind Speed 6 mph (WSW)    
Max Wind Speed 18 mph    
Max Gust Speed 25 mph    
Visibility 10 miles    
Events      
T = Trace of Precipitation, MM = Missing Value Source: NWS Daily Summary

Daily Weather History Graph

Daily Weather History Graph

Search for Another Location

Airport or City:

Trip Planner

Search our weather history database for the weather conditions in past years. The results will help you decide how hot, cold, wet, or windy it might be!

Date:

Astronomy

Dec. 18, 2012 Rise Set
Actual Time 7:32 AM CST 4:56 PM CST
Civil Twilight 7:01 AM CST 5:26 PM CST
Nautical Twilight 6:28 AM CST 6:00 PM CST
Astronomical Twilight 5:55 AM CST 6:32 PM CST
Moon 11:14 AM CST (12/18) 11:20 PM CST (12/18)
Length of Visible Light 10h 24m
Length of Day
9h 23m
Waxing Crescent, 35% of the Moon is Illuminated
Dec 18
Waxing Crescent
Dec 19
First Quarter
Dec 28
Full
Jan 4
Last Quarter
Jan 11
New

Hourly Weather History & Observations

Time (CST) Temp. Windchill Dew Point Humidity Pressure Visibility Wind Dir Wind Speed Gust Speed Precip Events Conditions
12:15 AM 33.8 °F 28.6 °F 32.0 °F 93% 29.68 in 7.0 mi SE 5.8 mph - N/A   Clear
12:35 AM 33.8 °F 29.6 °F 32.0 °F 93% 29.67 in 7.0 mi SE 4.6 mph - N/A   Clear
12:55 AM 33.8 °F 28.6 °F 32.0 °F 93% 29.67 in 7.0 mi SE 5.8 mph - N/A   Clear
1:15 AM 33.8 °F 29.6 °F 32.0 °F 93% 29.66 in 7.0 mi ESE 4.6 mph - N/A   Clear
1:35 AM 33.8 °F 29.6 °F 32.0 °F 93% 29.66 in 7.0 mi SE 4.6 mph - N/A   Clear
1:55 AM 33.8 °F 28.6 °F 32.0 °F 93% 29.64 in 7.0 mi ESE 5.8 mph - N/A   Scattered Clouds
2:15 AM 35.6 °F 31.7 °F 32.0 °F 87% 29.65 in 7.0 mi SE 4.6 mph - N/A   Overcast
2:35 AM 35.6 °F 30.7 °F 32.0 °F 87% 29.64 in 7.0 mi SE 5.8 mph - N/A   Overcast
2:55 AM 35.6 °F 31.7 °F 32.0 °F 87% 29.64 in 7.0 mi SE 4.6 mph - N/A   Overcast
3:15 AM 35.6 °F 32.8 °F 33.8 °F 93% 29.62 in 7.0 mi SE 3.5 mph - N/A   Overcast
3:35 AM 37.4 °F 32.8 °F 33.8 °F 87% 29.62 in 10.0 mi SE 5.8 mph - N/A   Overcast
3:55 AM 39.2 °F 35.0 °F 33.8 °F 81% 29.61 in 10.0 mi SSE 5.8 mph - N/A   Scattered Clouds
4:15 AM 37.4 °F 33.8 °F 33.8 °F 87% 29.59 in 10.0 mi SE 4.6 mph - N/A   Clear
4:35 AM 37.4 °F 33.8 °F 33.8 °F 87% 29.60 in 10.0 mi SSE 4.6 mph - N/A   Clear
4:55 AM 37.4 °F - 33.8 °F 87% 29.60 in 10.0 mi Calm Calm - N/A   Clear
5:15 AM 37.4 °F 32.8 °F 33.8 °F 87% 29.60 in 10.0 mi South 5.8 mph - N/A   Clear
5:35 AM 39.2 °F 35.0 °F 33.8 °F 81% 29.60 in 10.0 mi South 5.8 mph - N/A   Clear
6:15 AM 41.0 °F 38.0 °F 33.8 °F 76% 29.59 in 10.0 mi South 4.6 mph - N/A   Clear
6:35 AM 39.2 °F - 33.8 °F 81% 29.62 in 10.0 mi Calm Calm - N/A   Clear
6:55 AM 39.2 °F 37.0 °F 33.8 °F 81% 29.61 in 10.0 mi South 3.5 mph - N/A   Clear
7:15 AM 41.0 °F 39.0 °F 32.0 °F 70% 29.61 in 10.0 mi SSW 3.5 mph - N/A   Clear
7:35 AM 41.0 °F 38.0 °F 32.0 °F 70% 29.61 in 10.0 mi SW 4.6 mph - N/A   Clear
7:55 AM 41.0 °F 37.1 °F 32.0 °F 70% 29.63 in 10.0 mi SW 5.8 mph - N/A   Clear
8:15 AM 41.0 °F 37.1 °F 33.8 °F 76% 29.65 in 10.0 mi WSW 5.8 mph - N/A   Clear
8:35 AM 42.8 °F 38.6 °F 33.8 °F 70% 29.65 in 10.0 mi WSW 6.9 mph - N/A   Clear
8:55 AM 42.8 °F 38.0 °F 33.8 °F 70% 29.67 in 10.0 mi WSW 8.1 mph - N/A   Clear
9:15 AM 44.6 °F 40.2 °F 33.8 °F 66% 29.67 in 10.0 mi SW 8.1 mph - N/A   Clear
9:35 AM 44.6 °F 41.4 °F 33.8 °F 66% 29.67 in 10.0 mi West 5.8 mph - N/A   Clear
9:55 AM 46.4 °F 41.9 °F 33.8 °F 62% 29.68 in 10.0 mi WSW 9.2 mph - N/A   Clear
10:15 AM 50.0 °F - 32.0 °F 50% 29.68 in 10.0 mi WSW 8.1 mph - N/A   Clear
10:35 AM 50.0 °F - 33.8 °F 54% 29.69 in 10.0 mi WSW 9.2 mph - N/A   Clear
10:55 AM 51.8 °F - 32.0 °F 47% 29.69 in 10.0 mi West 8.1 mph 17.3 mph N/A   Unknown
11:15 AM 53.6 °F - 32.0 °F 44% 29.70 in 10.0 mi West 18.4 mph 24.2 mph N/A   Clear
11:35 AM 51.8 °F - 32.0 °F 47% 29.70 in 10.0 mi West 17.3 mph 23.0 mph N/A   Clear
11:55 AM 53.6 °F - 33.8 °F 47% 29.70 in 10.0 mi WNW 12.7 mph 18.4 mph N/A   Clear
12:15 PM 51.8 °F - 33.8 °F 50% 29.69 in 10.0 mi WNW 13.8 mph 20.7 mph N/A   Clear
12:35 PM 51.8 °F - 33.8 °F 50% 29.69 in 10.0 mi WNW 12.7 mph - N/A   Clear
12:55 PM 53.6 °F - 33.8 °F 47% 29.70 in 10.0 mi West 17.3 mph 24.2 mph N/A   Clear
1:15 PM 53.6 °F - 33.8 °F 47% 29.70 in 10.0 mi NW 15.0 mph 19.6 mph N/A   Clear
1:35 PM 53.6 °F - 33.8 °F 47% 29.71 in 10.0 mi West 17.3 mph 23.0 mph N/A   Clear
1:55 PM 53.6 °F - 33.8 °F 47% 29.71 in 10.0 mi West 12.7 mph 20.7 mph N/A   Clear
2:15 PM 53.6 °F - 33.8 °F 47% 29.72 in 10.0 mi WNW 13.8 mph 21.9 mph N/A   Clear
2:35 PM 53.6 °F - 32.0 °F 44% 29.72 in 10.0 mi WNW 17.3 mph 25.3 mph N/A   Clear
2:55 PM 53.6 °F - 33.8 °F 47% 29.73 in 10.0 mi NW 8.1 mph - N/A   Clear
3:15 PM 53.6 °F - 33.8 °F 47% 29.73 in 10.0 mi WNW 11.5 mph 18.4 mph N/A   Clear
3:35 PM 53.6 °F - 32.0 °F 44% 29.75 in 10.0 mi WNW 15.0 mph - N/A   Clear
3:55 PM 51.8 °F - 32.0 °F 47% 29.76 in 10.0 mi WNW 9.2 mph 20.7 mph N/A   Clear
4:15 PM 51.8 °F - 33.8 °F 50% 29.76 in 10.0 mi WNW 6.9 mph - N/A   Clear
4:35 PM 50.0 °F - 33.8 °F 54% 29.77 in 10.0 mi West 5.8 mph - N/A   Clear
4:55 PM 50.0 °F - 33.8 °F 54% 29.78 in 10.0 mi NW 6.9 mph - N/A   Clear
5:15 PM 48.2 °F - 32.0 °F 54% 29.78 in 10.0 mi NW 5.8 mph - N/A   Clear
5:35 PM 46.4 °F 45.2 °F 32.0 °F 57% 29.80 in 10.0 mi NW 3.5 mph - N/A   Clear
5:55 PM 44.6 °F - 32.0 °F 61% 29.81 in 10.0 mi Calm Calm - N/A   Clear
6:15 PM 44.6 °F - 32.0 °F 61% 29.82 in 10.0 mi Calm Calm - N/A   Clear
6:35 PM 41.0 °F 39.0 °F 32.0 °F 70% 29.83 in 10.0 mi NNW 3.5 mph - N/A   Clear
6:55 PM 39.2 °F - 32.0 °F 75% 29.83 in 10.0 mi Calm Calm - N/A   Clear
7:15 PM 39.2 °F - 32.0 °F 75% 29.85 in 10.0 mi Calm Calm - N/A   Clear
7:35 PM 37.4 °F - 32.0 °F 81% 29.85 in 10.0 mi Calm Calm - N/A   Clear
7:55 PM 35.6 °F - 32.0 °F 87% 29.86 in 10.0 mi Calm Calm - N/A   Clear
8:15 PM 35.6 °F - 32.0 °F 87% 29.86 in 10.0 mi Calm Calm - N/A   Clear
8:35 PM 33.8 °F - 32.0 °F 93% 29.87 in 10.0 mi Calm Calm - N/A   Clear
8:55 PM 33.8 °F - 32.0 °F 93% 29.87 in 10.0 mi Calm Calm - N/A   Unknown
9:15 PM 33.8 °F - 30.2 °F 87% 29.87 in 10.0 mi Calm Calm - N/A   Clear
9:35 PM 32.0 °F - 30.2 °F 93% 29.87 in 10.0 mi Calm Calm - N/A   Clear
9:55 PM 32.0 °F - 32.0 °F 100% 29.86 in 10.0 mi Calm Calm - N/A   Clear
10:15 PM 32.0 °F - 30.2 °F 93% 29.87 in 10.0 mi Calm Calm - N/A   Clear
10:35 PM 32.0 °F - 30.2 °F 93% 29.88 in 10.0 mi Calm Calm - N/A   Clear
10:55 PM 32.0 °F - 30.2 °F 93% 29.89 in 10.0 mi Calm Calm - N/A   Clear
11:15 PM 32.0 °F - 30.2 °F 93% 29.90 in 10.0 mi Calm Calm - N/A   Clear
11:35 PM 32.0 °F - 30.2 °F 93% 29.90 in 10.0 mi Calm Calm - N/A   Clear
11:55 PM 32.0 °F - 30.2 °F 93% 29.90 in 10.0 mi Calm Calm - N/A   Clear